Time,TemperatureF,DewpointF,PressureIn,WindDirection,WindDirectionDegrees,WindSpeedMPH,WindSpeedGustMPH,Humidity,HourlyPrecipIn,Conditions,Clouds,dailyrainin,SoftwareType,DateUTC
2013-02-02 00:00:00,54.3,53.2,30.20,ESE,104,2.3,2.3,96,0.00,CLR,,0.00,WeatherDisplay:10.37,2013-02-02 06:00:00,
2013-02-02 00:05:00,54.3,53.5,30.19,ESE,104,0.0,0.0,97,0.00,CLR,,0.00,WeatherDisplay:10.37,2013-02-02 06:05:00,
2013-02-02 00:10:00,54.7,54.1,30.19,ESE,104,0.0,0.0,98,0.00,CLR,,0.00,WeatherDisplay:10.37,2013-02-02 06:10:00,
2013-02-02 00:15:00,55.3,54.7,30.19,ESE,104,1.1,0.0,98,0.00,CLR,,0.00,WeatherDisplay:10.37,2013-02-02 06:15:00,
2013-02-02 00:20:00,55.8,55.2,30.18,ESE,104,2.3,2.3,98,0.00,CLR,,0.00,WeatherDisplay:10.37,2013-02-02 06:20:00,
2013-02-02 00:25:00,55.9,55.3,30.18,ESE,104,1.1,1.1,98,0.00,CLR,,0.00,WeatherDisplay:10.37,2013-02-02 06:25:00,
2013-02-02 00:30:00,56.2,55.6,30.18,ESE,104,0.0,0.0,98,0.00,CLR,,0.00,WeatherDisplay:10.37,2013-02-02 06:30:00,
2013-02-02 00:35:00,56.4,55.8,30.18,ESE,104,0.0,0.1,98,0.00,CLR,,0.00,WeatherDisplay:10.37,2013-02-02 06:35:00,
2013-02-02 00:40:00,56.5,55.9,30.18,ESE,104,1.1,0.0,98,0.00,CLR,,0.00,WeatherDisplay:10.37,2013-02-02 06:40:00,
2013-02-02 00:45:00,56.3,55.7,30.18,ESE,104,0.0,0.0,98,0.00,CLR,,0.00,WeatherDisplay:10.37,2013-02-02 06:45:00,
2013-02-02 00:50:00,56.3,55.7,30.18,ESE,104,0.0,0.0,98,0.00,CLR,,0.00,WeatherDisplay:10.37,2013-02-02 06:50:00,
2013-02-02 00:55:00,56.3,55.7,30.18,ESE,104,0.0,0.0,98,0.00,CLR,,0.00,WeatherDisplay:10.37,2013-02-02 06:55:00,
2013-02-02 01:00:00,56.1,55.5,30.18,ESE,104,0.0,0.0,98,0.00,CLR,,0.00,WeatherDisplay:10.37,2013-02-02 07:00:00,
2013-02-02 01:05:00,56.1,55.5,30.17,ESE,104,0.0,0.0,98,0.00,CLR,,0.00,WeatherDisplay:10.37,2013-02-02 07:05:00,
2013-02-02 01:10:00,56.0,55.4,30.18,ESE,104,0.0,0.0,98,0.00,CLR,,0.00,WeatherDisplay:10.37,2013-02-02 07:10:00,
2013-02-02 01:15:00,55.9,55.3,30.18,ESE,104,0.0,0.0,98,0.00,CLR,,0.00,WeatherDisplay:10.37,2013-02-02 07:15:00,
2013-02-02 01:20:00,55.8,55.2,30.18,ESE,104,0.0,0.0,98,0.00,CLR,,0.00,WeatherDisplay:10.37,2013-02-02 07:20:00,
2013-02-02 01:25:00,55.7,55.1,30.18,ESE,104,0.0,0.0,98,0.00,CLR,,0.00,WeatherDisplay:10.37,2013-02-02 07:25:00,
2013-02-02 01:30:00,55.6,55.0,30.18,ESE,104,0.0,0.0,98,0.00,CLR,,0.00,WeatherDisplay:10.37,2013-02-02 07:30:00,
2013-02-02 01:35:00,55.7,55.1,30.18,ESE,104,0.0,0.0,98,0.00,CLR,,0.00,WeatherDisplay:10.37,2013-02-02 07:35:00,
2013-02-02 01:40:00,55.6,55.0,30.18,ESE,104,0.0,0.0,98,0.00,CLR,,0.00,WeatherDisplay:10.37,2013-02-02 07:40:00,
2013-02-02 01:45:00,55.7,55.4,30.18,ESE,104,0.0,0.0,99,0.00,CLR,,0.00,WeatherDisplay:10.37,2013-02-02 07:45:00,
2013-02-02 01:50:00,55.7,55.4,30.17,ESE,104,0.0,0.0,99,0.00,CLR,,0.00,WeatherDisplay:10.37,2013-02-02 07:50:00,
2013-02-02 01:55:00,55.8,55.5,30.17,ESE,104,0.0,0.0,99,0.00,CLR,,0.00,WeatherDisplay:10.37,2013-02-02 07:55:00,
2013-02-02 02:00:00,55.8,55.5,30.17,ESE,104,0.0,0.0,99,0.00,CLR,,0.00,WeatherDisplay:10.37,2013-02-02 08:00:00,
2013-02-02 02:05:00,55.5,54.9,30.17,ESE,104,0.0,0.0,98,0.00,CLR,,0.00,WeatherDisplay:10.37,2013-02-02 08:05:00,
2013-02-02 02:10:00,54.9,54.1,30.17,ESE,104,0.0,0.0,97,0.00,CLR,,0.00,WeatherDisplay:10.37,2013-02-02 08:10:00,
2013-02-02 02:15:00,54.2,53.4,30.17,ESE,104,0.0,0.0,97,0.00,CLR,,0.00,WeatherDisplay:10.37,2013-02-02 08:15:00,
2013-02-02 02:20:00,53.9,53.3,30.17,ESE,104,0.0,0.0,98,0.00,CLR,,0.00,WeatherDisplay:10.37,2013-02-02 08:20:00,
2013-02-02 02:25:00,53.8,53.2,30.17,ESE,104,0.0,0.0,98,0.00,CLR,,0.00,WeatherDisplay:10.37,2013-02-02 08:25:00,
2013-02-02 02:30:00,53.9,53.6,30.17,ESE,104,0.0,0.0,99,0.00,CLR,,0.00,WeatherDisplay:10.37,2013-02-02 08:30:00,
2013-02-02 02:35:00,54.3,54.0,30.17,ESE,104,0.0,0.0,99,0.00,CLR,,0.00,WeatherDisplay:10.37,2013-02-02 08:35:00,
2013-02-02 02:40:00,55.0,55.0,30.16,ESE,104,1.1,1.1,100,0.00,CLR,,0.00,WeatherDisplay:10.37,2013-02-02 08:40:00,
2013-02-02 02:45:00,55.6,55.6,30.16,ESE,104,0.0,0.1,100,0.00,CLR,,0.00,WeatherDisplay:10.37,2013-02-02 08:45:00,
2013-02-02 02:50:00,56.0,56.0,30.16,ESE,104,1.1,1.1,100,0.00,CLR,,0.00,WeatherDisplay:10.37,2013-02-02 08:50:00,
2013-02-02 02:55:00,56.2,56.2,30.16,ESE,104,0.0,0.0,100,0.00,CLR,,0.00,WeatherDisplay:10.37,2013-02-02 08:55:00,
2013-02-02 03:01:00,56.4,56.4,30.16,ESE,104,0.0,0.0,100,0.00,CLR,,0.00,WeatherDisplay:10.37,2013-02-02 09:01:00,
2013-02-02 03:06:00,56.5,56.2,30.16,ESE,104,0.0,0.3,99,0.00,CLR,,0.00,WeatherDisplay:10.37,2013-02-02 09:06:00,
2013-02-02 03:11:00,56.2,55.9,30.16,ESE,104,0.0,0.0,99,0.00,CLR,,0.00,WeatherDisplay:10.37,2013-02-02 09:11:00,
2013-02-02 03:16:00,56.1,55.8,30.16,ESE,104,0.0,0.0,99,0.00,CLR,,0.00,WeatherDisplay:10.37,2013-02-02 09:16:00,
2013-02-02 03:21:00,55.7,55.4,30.16,ESE,104,0.0,0.0,99,0.00,CLR,,0.00,WeatherDisplay:10.37,2013-02-02 09:21:00,
2013-02-02 03:26:00,55.5,55.2,30.16,ESE,104,0.0,0.0,99,0.00,CLR,,0.00,WeatherDisplay:10.37,2013-02-02 09:26:00,
2013-02-02 03:31:00,55.3,55.0,30.16,ESE,104,0.0,0.0,99,0.00,CLR,,0.00,WeatherDisplay:10.37,2013-02-02 09:31:00,
2013-02-02 03:36:00,55.4,55.1,30.16,ESE,104,0.0,0.0,99,0.00,CLR,,0.00,WeatherDisplay:10.37,2013-02-02 09:36:00,
2013-02-02 03:41:00,55.4,55.1,30.17,ESE,104,0.0,0.0,99,0.00,CLR,,0.00,WeatherDisplay:10.37,2013-02-02 09:41:00,
2013-02-02 03:46:00,55.3,55.0,30.17,ESE,104,0.0,0.0,99,0.00,CLR,,0.00,WeatherDisplay:10.37,2013-02-02 09:46:00,
2013-02-02 03:51:00,55.2,54.9,30.17,ESE,104,0.0,0.0,99,0.00,CLR,,0.00,WeatherDisplay:10.37,2013-02-02 09:51:00,
2013-02-02 03:56:00,54.9,54.6,30.16,ESE,104,0.0,0.0,99,0.00,CLR,,0.00,WeatherDisplay:10.37,2013-02-02 09:56:00,
2013-02-02 04:01:00,54.6,54.3,30.16,ESE,104,0.0,0.0,99,0.00,CLR,,0.00,WeatherDisplay:10.37,2013-02-02 10:01:00,
2013-02-02 04:06:00,54.5,54.2,30.16,ESE,104,0.0,0.0,99,0.00,CLR,,0.00,WeatherDisplay:10.37,2013-02-02 10:06:00,
2013-02-02 04:11:00,54.3,54.0,30.16,ESE,104,0.0,0.0,99,0.00,CLR,,0.00,WeatherDisplay:10.37,2013-02-02 10:11:00,
2013-02-02 04:16:00,54.1,53.8,30.16,ESE,104,2.3,2.3,99,0.00,CLR,,0.00,WeatherDisplay:10.37,2013-02-02 10:16:00,
2013-02-02 04:21:00,54.5,54.5,30.16,ESE,104,1.1,1.1,100,0.00,CLR,,0.00,WeatherDisplay:10.37,2013-02-02 10:21:00,
2013-02-02 04:26:00,55.0,55.0,30.16,ESE,104,2.3,2.3,100,0.00,CLR,,0.00,WeatherDisplay:10.37,2013-02-02 10:26:00,
2013-02-02 04:31:00,55.5,55.5,30.15,ESE,104,1.1,1.1,100,0.00,CLR,,0.00,WeatherDisplay:10.37,2013-02-02 10:31:00,
2013-02-02 04:36:00,55.9,55.9,30.15,ESE,104,1.1,1.1,100,0.00,CLR,,0.00,WeatherDisplay:10.37,2013-02-02 10:36:00,
2013-02-02 04:41:00,56.2,56.2,30.16,ESE,104,1.1,1.1,100,0.00,CLR,,0.00,WeatherDisplay:10.37,2013-02-02 10:41:00,
2013-02-02 04:46:00,56.4,56.4,30.16,ESE,104,1.1,0.0,100,0.00,CLR,,0.00,WeatherDisplay:10.37,2013-02-02 10:46:00,
2013-02-02 04:51:00,56.5,56.5,30.15,ESE,104,0.0,0.1,100,0.00,CLR,,0.00,WeatherDisplay:10.37,2013-02-02 10:51:00,
2013-02-02 04:56:00,56.3,56.0,30.16,ESE,104,1.1,1.1,99,0.00,CLR,,0.00,WeatherDisplay:10.37,2013-02-02 10:56:00,
2013-02-02 05:01:00,56.1,55.8,30.16,ESE,104,0.0,0.0,99,0.00,CLR,,0.00,WeatherDisplay:10.37,2013-02-02 11:01:00,
2013-02-02 05:06:00,56.0,55.7,30.16,ESE,104,0.0,0.0,99,0.00,CLR,,0.00,WeatherDisplay:10.37,2013-02-02 11:06:00,
2013-02-02 05:11:00,55.9,55.6,30.16,ESE,104,0.0,0.0,99,0.00,CLR,,0.00,WeatherDisplay:10.37,2013-02-02 11:11:00,
2013-02-02 05:16:00,55.9,55.6,30.16,ESE,104,0.0,0.0,99,0.00,CLR,,0.00,WeatherDisplay:10.37,2013-02-02 11:16:00,
2013-02-02 05:21:00,55.8,55.5,30.16,ESE,104,0.0,0.0,99,0.00,CLR,,0.00,WeatherDisplay:10.37,2013-02-02 11:21:00,
2013-02-02 05:26:00,55.7,55.4,30.16,ESE,104,0.0,0.0,99,0.00,CLR,,0.00,WeatherDisplay:10.37,2013-02-02 11:26:00,
2013-02-02 05:31:00,55.4,55.1,30.16,ESE,104,0.0,0.0,99,0.00,CLR,,0.00,WeatherDisplay:10.37,2013-02-02 11:31:00,
2013-02-02 05:36:00,54.9,54.3,30.16,ESE,104,0.0,0.0,98,0.00,CLR,,0.00,WeatherDisplay:10.37,2013-02-02 11:36:00,
2013-02-02 05:41:00,54.6,54.3,30.16,ESE,104,0.0,0.0,99,0.00,CLR,,0.00,WeatherDisplay:10.37,2013-02-02 11:41:00,
2013-02-02 05:46:00,54.4,54.1,30.16,ESE,104,0.0,0.0,99,0.00,CLR,,0.00,WeatherDisplay:10.37,2013-02-02 11:46:00,
2013-02-02 05:51:00,54.0,53.7,30.16,ESE,104,0.0,0.0,99,0.00,CLR,,0.00,WeatherDisplay:10.37,2013-02-02 11:51:00,
2013-02-02 05:56:00,53.5,52.9,30.16,ESE,104,0.0,0.0,98,0.00,CLR,,0.00,WeatherDisplay:10.37,2013-02-02 11:56:00,
2013-02-02 06:01:00,53.4,53.1,30.16,ESE,104,0.0,0.0,99,0.00,CLR,,0.00,WeatherDisplay:10.37,2013-02-02 12:01:00,
2013-02-02 06:06:00,53.6,53.6,30.17,ESE,104,0.0,0.0,100,0.00,CLR,,0.00,WeatherDisplay:10.37,2013-02-02 12:06:00,
2013-02-02 06:11:00,54.3,54.3,30.17,ESE,104,0.0,0.0,100,0.00,CLR,,0.00,WeatherDisplay:10.37,2013-02-02 12:11:00,
2013-02-02 06:16:00,54.9,54.9,30.17,ESE,104,1.1,1.1,100,0.00,CLR,,0.00,WeatherDisplay:10.37,2013-02-02 12:16:00,
2013-02-02 06:21:00,55.1,55.1,30.17,ESE,104,1.1,1.1,100,0.00,CLR,,0.00,WeatherDisplay:10.37,2013-02-02 12:21:00,
2013-02-02 06:26:00,55.2,55.2,30.17,ESE,104,0.0,0.0,100,0.00,CLR,,0.00,WeatherDisplay:10.37,2013-02-02 12:26:00,
2013-02-02 06:31:00,55.2,55.2,30.17,ESE,104,2.3,2.3,100,0.00,CLR,,0.00,WeatherDisplay:10.37,2013-02-02 12:31:00,
2013-02-02 06:36:00,55.3,55.3,30.17,ESE,104,0.0,0.0,100,0.00,CLR,,0.00,WeatherDisplay:10.37,2013-02-02 12:36:00,
2013-02-02 06:41:00,55.2,55.2,30.18,ESE,104,0.0,0.0,100,0.00,CLR,,0.00,WeatherDisplay:10.37,2013-02-02 12:41:00,
2013-02-02 06:46:00,55.3,55.3,30.17,ESE,104,0.0,0.0,100,0.00,CLR,,0.00,WeatherDisplay:10.37,2013-02-02 12:46:00,
2013-02-02 06:51:00,55.3,55.3,30.17,ESE,104,0.0,0.0,100,0.00,CLR,,0.00,WeatherDisplay:10.37,2013-02-02 12:51:00,
2013-02-02 06:56:00,55.3,55.3,30.18,ESE,104,0.0,0.0,100,0.00,CLR,,0.00,WeatherDisplay:10.37,2013-02-02 12:56:00,
2013-02-02 07:01:00,55.2,55.2,30.18,ESE,104,0.0,0.0,100,0.00,CLR,,0.00,WeatherDisplay:10.37,2013-02-02 13:01:00,
2013-02-02 07:06:00,55.2,55.2,30.18,ESE,104,0.0,0.0,100,0.00,CLR,,0.00,WeatherDisplay:10.37,2013-02-02 13:06:00,
2013-02-02 07:11:00,55.2,55.2,30.18,ESE,104,0.0,0.0,100,0.00,CLR,,0.00,WeatherDisplay:10.37,2013-02-02 13:11:00,
2013-02-02 07:16:00,55.1,55.1,30.18,ESE,104,0.0,0.0,100,0.00,CLR,,0.00,WeatherDisplay:10.37,2013-02-02 13:16:00,
2013-02-02 07:21:00,55.1,55.1,30.19,ESE,104,0.0,0.0,100,0.00,CLR,,0.00,WeatherDisplay:10.37,2013-02-02 13:21:00,
2013-02-02 07:26:00,55.2,55.2,30.18,ESE,104,1.1,1.1,100,0.00,CLR,,0.00,WeatherDisplay:10.37,2013-02-02 13:26:00,
2013-02-02 07:31:00,55.5,55.5,30.19,ESE,104,0.0,0.0,100,0.00,CLR,,0.00,WeatherDisplay:10.37,2013-02-02 13:31:00,
2013-02-02 07:36:00,55.8,55.8,30.19,ESE,104,1.1,0.0,100,0.00,CLR,,0.00,WeatherDisplay:10.37,2013-02-02 13:36:00,
2013-02-02 07:41:00,56.0,56.0,30.19,ESE,104,0.0,0.0,100,0.00,CLR,,0.00,WeatherDisplay:10.37,2013-02-02 13:41:00,
2013-02-02 07:46:00,56.3,56.3,30.19,ESE,104,1.1,1.1,100,0.00,CLR,,0.00,WeatherDisplay:10.37,2013-02-02 13:46:00,
2013-02-02 07:51:00,56.5,56.5,30.19,ESE,104,0.0,0.0,100,0.00,CLR,,0.00,WeatherDisplay:10.37,2013-02-02 13:51:00,
2013-02-02 07:56:00,56.7,56.7,30.20,ESE,104,0.0,0.0,100,0.00,CLR,,0.00,WeatherDisplay:10.37,2013-02-02 13:56:00,
2013-02-02 08:01:00,56.8,56.8,30.20,ESE,104,0.0,0.0,100,0.00,CLR,,0.00,WeatherDisplay:10.37,2013-02-02 14:01:00,
2013-02-02 08:06:00,57.1,57.1,30.20,ESE,104,1.1,1.1,100,0.00,CLR,,0.00,WeatherDisplay:10.37,2013-02-02 14:06:00,
2013-02-02 08:11:00,57.4,57.4,30.20,ESE,104,1.1,1.1,100,0.00,CLR,,0.00,WeatherDisplay:10.37,2013-02-02 14:11:00,
2013-02-02 08:16:00,57.7,57.7,30.20,ESE,104,1.1,1.1,100,0.00,CLR,,0.00,WeatherDisplay:10.37,2013-02-02 14:16:00,
2013-02-02 08:21:00,58.3,58.3,30.20,ESE,104,1.1,1.1,100,0.00,CLR,,0.00,WeatherDisplay:10.37,2013-02-02 14:21:00,
2013-02-02 08:26:00,59.2,59.2,30.20,ESE,104,2.3,2.3,100,0.00,CLR,,0.00,WeatherDisplay:10.37,2013-02-02 14:26:00,
2013-02-02 08:31:00,60.2,60.2,30.20,ESE,104,3.5,3.5,100,0.00,CLR,,0.00,WeatherDisplay:10.37,2013-02-02 14:31:00,
2013-02-02 08:36:00,61.2,61.2,30.20,ESE,104,3.5,3.5,100,0.00,CLR,,0.00,WeatherDisplay:10.37,2013-02-02 14:36:00,
2013-02-02 08:41:00,62.1,62.1,30.20,ESE,104,3.5,3.5,100,0.00,CLR,,0.00,WeatherDisplay:10.37,2013-02-02 14:41:00,
2013-02-02 08:46:00,63.0,62.1,30.20,ESE,104,4.6,4.6,97,0.00,CLR,,0.00,WeatherDisplay:10.37,2013-02-02 14:46:00,
2013-02-02 08:51:00,63.8,62.0,30.20,ESE,104,3.5,3.5,94,0.00,CLR,,0.00,WeatherDisplay:10.37,2013-02-02 14:51:00,
2013-02-02 08:56:00,64.3,61.9,30.20,ESE,104,3.5,3.5,92,0.00,CLR,,0.00,WeatherDisplay:10.37,2013-02-02 14:56:00,
2013-02-02 09:01:00,64.9,61.9,30.20,ESE,104,3.5,3.5,90,0.00,CLR,,0.00,WeatherDisplay:10.37,2013-02-02 15:01:00,
2013-02-02 09:06:00,65.5,61.9,30.21,ESE,104,3.5,3.5,88,0.00,CLR,,0.00,WeatherDisplay:10.37,2013-02-02 15:06:00,
2013-02-02 09:11:00,66.1,61.8,30.21,ESE,114,5.8,5.8,86,0.00,CLR,,0.00,WeatherDisplay:10.37,2013-02-02 15:11:00,
2013-02-02 09:16:00,66.6,61.9,30.21,ESE,114,3.5,3.5,85,0.00,CLR,,0.00,WeatherDisplay:10.37,2013-02-02 15:16:00,
2013-02-02 09:21:00,67.1,62.1,30.21,ESE,114,4.6,4.6,84,0.00,CLR,,0.00,WeatherDisplay:10.37,2013-02-02 15:21:00,
2013-02-02 09:26:00,67.5,61.5,30.22,ESE,117,5.8,5.8,81,0.00,CLR,,0.00,WeatherDisplay:10.37,2013-02-02 15:26:00,
2013-02-02 09:31:00,67.9,61.5,30.22,SE,124,5.8,5.8,80,0.00,CLR,,0.00,WeatherDisplay:10.37,2013-02-02 15:31:00,
2013-02-02 09:36:00,68.4,62.0,30.22,ESE,122,5.8,5.8,80,0.00,CLR,,0.00,WeatherDisplay:10.37,2013-02-02 15:36:00,
2013-02-02 09:41:00,68.7,60.8,30.22,ESE,123,6.9,6.9,76,0.00,CLR,,0.00,WeatherDisplay:10.37,2013-02-02 15:41:00,
2013-02-02 09:46:00,68.7,61.2,30.22,South,179,4.6,4.6,77,0.00,CLR,,0.00,WeatherDisplay:10.37,2013-02-02 15:46:00,
2013-02-02 09:51:00,68.9,61.4,30.22,ESE,123,5.8,5.8,77,0.00,CLR,,0.00,WeatherDisplay:10.37,2013-02-02 15:51:00,
2013-02-02 09:56:00,69.1,61.2,30.22,SE,141,10.4,10.4,76,0.00,CLR,,0.00,WeatherDisplay:10.37,2013-02-02 15:56:00,
2013-02-02 10:01:00,68.8,60.9,30.22,SSE,147,5.8,5.8,76,0.00,CLR,,0.00,WeatherDisplay:10.37,2013-02-02 16:01:00,
2013-02-02 10:06:00,69.0,61.1,30.22,SSE,159,6.9,6.9,76,0.00,CLR,,0.00,WeatherDisplay:10.37,2013-02-02 16:06:00,
2013-02-02 10:11:00,69.5,61.6,30.22,SE,145,5.8,5.8,76,0.00,CLR,,0.00,WeatherDisplay:10.37,2013-02-02 16:11:00,
2013-02-02 10:16:00,69.8,61.1,30.22,SE,132,5.8,5.8,74,0.00,CLR,,0.00,WeatherDisplay:10.37,2013-02-02 16:16:00,
2013-02-02 10:21:00,70.2,61.5,30.22,South,188,9.2,9.2,74,0.00,CLR,,0.00,WeatherDisplay:10.37,2013-02-02 16:21:00,
2013-02-02 10:26:00,70.2,61.1,30.22,SSE,153,6.9,6.9,73,0.00,CLR,,0.00,WeatherDisplay:10.37,2013-02-02 16:26:00,
2013-02-02 10:31:00,70.0,61.3,30.22,SE,135,5.8,5.8,74,0.00,CLR,,0.00,WeatherDisplay:10.37,2013-02-02 16:31:00,
2013-02-02 10:36:00,69.9,61.2,30.22,SE,146,6.9,6.9,74,0.00,CLR,,0.00,WeatherDisplay:10.37,2013-02-02 16:36:00,
2013-02-02 10:41:00,70.2,61.1,30.22,South,191,6.9,6.9,73,0.00,CLR,,0.00,WeatherDisplay:10.37,2013-02-02 16:41:00,
2013-02-02 10:46:00,70.6,61.5,30.22,SE,131,5.8,5.8,73,0.00,CLR,,0.00,WeatherDisplay:10.37,2013-02-02 16:46:00,
2013-02-02 10:51:00,70.3,60.8,30.22,South,171,9.2,9.2,72,0.00,CLR,,0.00,WeatherDisplay:10.37,2013-02-02 16:51:00,
2013-02-02 10:56:00,69.7,61.0,30.22,SE,125,5.8,5.8,74,0.00,CLR,,0.00,WeatherDisplay:10.37,2013-02-02 16:56:00,
2013-02-02 11:01:00,69.3,59.5,30.22,SE,146,12.7,12.7,71,0.00,CLR,,0.00,WeatherDisplay:10.37,2013-02-02 17:01:00,
2013-02-02 11:06:00,70.1,60.7,30.22,ESE,120,6.9,6.9,72,0.00,CLR,,0.00,WeatherDisplay:10.37,2013-02-02 17:06:00,
2013-02-02 11:11:00,70.4,59.7,30.22,SE,134,10.4,10.4,69,0.00,CLR,,0.00,WeatherDisplay:10.37,2013-02-02 17:11:00,
2013-02-02 11:16:00,70.5,61.0,30.22,SE,141,5.8,5.8,72,0.00,CLR,,0.00,WeatherDisplay:10.37,2013-02-02 17:16:00,
2013-02-02 11:21:00,70.6,60.7,30.22,SE,134,6.9,6.9,71,0.00,CLR,,0.00,WeatherDisplay:10.37,2013-02-02 17:21:00,
2013-02-02 11:26:00,70.5,59.4,30.22,SSE,150,6.9,6.9,68,0.00,CLR,,0.00,WeatherDisplay:10.37,2013-02-02 17:26:00,
2013-02-02 11:31:00,70.5,59.8,30.21,ESE,122,10.4,10.4,69,0.00,CLR,,0.00,WeatherDisplay:10.37,2013-02-02 17:31:00,
2013-02-02 11:36:00,70.2,59.6,30.21,SSE,160,9.2,9.2,69,0.00,CLR,,0.00,WeatherDisplay:10.37,2013-02-02 17:36:00,
2013-02-02 11:41:00,69.8,59.6,30.21,South,177,6.9,6.9,70,0.00,CLR,,0.00,WeatherDisplay:10.37,2013-02-02 17:41:00,
2013-02-02 11:46:00,69.6,59.4,30.21,South,169,6.9,6.9,70,0.00,CLR,,0.00,WeatherDisplay:10.37,2013-02-02 17:46:00,
2013-02-02 11:51:00,69.2,60.2,30.20,SSE,166,9.2,9.2,73,0.00,CLR,,0.00,WeatherDisplay:10.37,2013-02-02 17:51:00,
2013-02-02 11:56:00,69.5,60.5,30.20,SSE,166,10.4,10.4,73,0.00,CLR,,0.00,WeatherDisplay:10.37,2013-02-02 17:56:00,
2013-02-02 12:01:00,70.0,60.9,30.20,SE,132,6.9,6.9,73,0.00,CLR,,0.00,WeatherDisplay:10.37,2013-02-02 18:01:00,
2013-02-02 12:06:00,70.2,60.4,30.20,SE,134,8.1,8.1,71,0.00,CLR,,0.00,WeatherDisplay:10.37,2013-02-02 18:06:00,
2013-02-02 12:11:00,70.3,60.4,30.20,SE,136,5.8,5.8,71,0.00,CLR,,0.00,WeatherDisplay:10.37,2013-02-02 18:11:00,
2013-02-02 12:16:00,71.1,61.2,30.20,ESE,117,6.9,6.9,71,0.00,CLR,,0.00,WeatherDisplay:10.37,2013-02-02 18:16:00,
2013-02-02 12:21:00,71.2,60.9,30.19,ESE,110,5.8,5.8,70,0.00,CLR,,0.00,WeatherDisplay:10.37,2013-02-02 18:21:00,
2013-02-02 12:26:00,71.6,60.9,30.19,SE,125,10.4,10.4,69,0.00,CLR,,0.00,WeatherDisplay:10.37,2013-02-02 18:26:00,
2013-02-02 12:31:00,71.8,61.1,30.19,ESE,115,10.4,10.4,69,0.00,CLR,,0.00,WeatherDisplay:10.37,2013-02-02 18:31:00,
2013-02-02 12:36:00,71.8,61.1,30.19,SE,131,10.4,10.4,69,0.00,CLR,,0.00,WeatherDisplay:10.37,2013-02-02 18:36:00,
2013-02-02 12:41:00,71.3,61.0,30.19,SE,139,8.1,8.1,70,0.00,CLR,,0.00,WeatherDisplay:10.37,2013-02-02 18:41:00,
2013-02-02 12:46:00,71.4,60.7,30.19,East,82,9.2,9.2,69,0.00,CLR,,0.00,WeatherDisplay:10.37,2013-02-02 18:46:00,
2013-02-02 12:51:00,71.7,60.6,30.19,South,176,9.2,9.2,68,0.00,CLR,,0.00,WeatherDisplay:10.37,2013-02-02 18:51:00,
2013-02-02 12:56:00,71.9,60.8,30.19,ESE,104,11.5,11.5,68,0.00,CLR,,0.00,WeatherDisplay:10.37,2013-02-02 18:56:00,
2013-02-02 13:01:00,72.0,61.3,30.19,ESE,105,9.2,9.2,69,0.00,CLR,,0.00,WeatherDisplay:10.37,2013-02-02 19:01:00,
2013-02-02 13:06:00,71.8,61.5,30.19,ESE,120,6.9,6.9,70,0.00,CLR,,0.00,WeatherDisplay:10.37,2013-02-02 19:06:00,
2013-02-02 13:11:00,72.1,61.4,30.18,SSE,149,7.4,7.4,69,0.00,CLR,,0.00,WeatherDisplay:10.37,2013-02-02 19:11:00,
2013-02-02 13:16:00,72.4,61.2,30.17,SE,141,11.5,11.5,68,0.00,CLR,,0.00,WeatherDisplay:10.37,2013-02-02 19:16:00,
2013-02-02 13:21:00,72.1,61.4,30.17,SE,143,12.7,12.7,69,0.00,CLR,,0.00,WeatherDisplay:10.37,2013-02-02 19:21:00,
2013-02-02 13:26:00,71.3,60.2,30.17,SE,126,9.2,9.2,68,0.00,CLR,,0.00,WeatherDisplay:10.37,2013-02-02 19:26:00,
2013-02-02 13:31:00,70.9,60.6,30.17,SE,139,6.9,6.9,70,0.00,CLR,,0.00,WeatherDisplay:10.37,2013-02-02 19:31:00,
2013-02-02 13:36:00,70.9,60.6,30.17,ESE,108,5.8,5.8,70,0.00,CLR,,0.00,WeatherDisplay:10.37,2013-02-02 19:36:00,
2013-02-02 13:41:00,71.3,61.0,30.17,East,98,9.2,9.2,70,0.00,CLR,,0.00,WeatherDisplay:10.37,2013-02-02 19:41:00,
2013-02-02 13:46:00,71.2,60.5,30.17,ESE,122,10.4,10.4,69,0.00,CLR,,0.00,WeatherDisplay:10.37,2013-02-02 19:46:00,
2013-02-02 13:51:00,71.4,60.7,30.17,ESE,115,6.9,6.9,69,0.00,CLR,,0.00,WeatherDisplay:10.37,2013-02-02 19:51:00,
2013-02-02 13:56:00,71.5,61.2,30.16,East,101,10.4,10.4,70,0.00,CLR,,0.00,WeatherDisplay:10.37,2013-02-02 19:56:00,
2013-02-02 14:01:00,71.6,61.3,30.17,SE,134,9.2,9.2,70,0.00,CLR,,0.00,WeatherDisplay:10.37,2013-02-02 20:01:00,
2013-02-02 14:06:00,71.9,61.2,30.16,SE,145,9.2,9.2,69,0.00,CLR,,0.00,WeatherDisplay:10.37,2013-02-02 20:06:00,
2013-02-02 14:11:00,72.0,61.7,30.16,ESE,104,9.2,9.2,70,0.00,CLR,,0.00,WeatherDisplay:10.37,2013-02-02 20:11:00,
2013-02-02 14:16:00,72.1,61.4,30.16,SE,127,10.4,10.4,69,0.00,CLR,,0.00,WeatherDisplay:10.37,2013-02-02 20:16:00,
2013-02-02 14:21:00,72.2,61.0,30.16,SE,127,12.7,12.7,68,0.00,CLR,,0.00,WeatherDisplay:10.37,2013-02-02 20:21:00,
2013-02-02 14:26:00,71.9,61.6,30.16,SE,134,8.1,8.1,70,0.00,CLR,,0.00,WeatherDisplay:10.37,2013-02-02 20:26:00,
2013-02-02 14:31:00,72.1,61.4,30.16,SE,134,11.5,11.5,69,0.00,CLR,,0.00,WeatherDisplay:10.37,2013-02-02 20:31:00,
2013-02-02 14:36:00,71.9,61.6,30.16,SE,124,9.2,9.2,70,0.00,CLR,,0.00,WeatherDisplay:10.37,2013-02-02 20:36:00,
2013-02-02 14:41:00,72.1,61.8,30.16,SE,129,13.8,13.8,70,0.00,CLR,,0.00,WeatherDisplay:10.37,2013-02-02 20:41:00,
2013-02-02 14:46:00,71.8,61.5,30.16,SE,129,5.8,5.8,70,0.00,CLR,,0.00,WeatherDisplay:10.37,2013-02-02 20:46:00,
2013-02-02 14:51:00,71.4,61.1,30.16,SSE,151,5.8,5.8,70,0.00,CLR,,0.00,WeatherDisplay:10.37,2013-02-02 20:51:00,
2013-02-02 14:56:00,71.4,61.5,30.16,SSE,162,10.4,10.4,71,0.00,CLR,,0.00,WeatherDisplay:10.37,2013-02-02 20:56:00,
2013-02-02 15:01:00,71.5,61.6,30.16,South,173,9.2,9.2,71,0.00,CLR,,0.00,WeatherDisplay:10.37,2013-02-02 21:01:00,
2013-02-02 15:06:00,71.7,61.8,30.16,SE,135,10.4,10.4,71,0.00,CLR,,0.00,WeatherDisplay:10.37,2013-02-02 21:06:00,
2013-02-02 15:11:00,71.8,61.5,30.15,SE,129,6.9,6.9,70,0.00,CLR,,0.00,WeatherDisplay:10.37,2013-02-02 21:11:00,
2013-02-02 15:16:00,71.6,61.3,30.15,SE,133,10.4,10.4,70,0.00,CLR,,0.00,WeatherDisplay:10.37,2013-02-02 21:16:00,
2013-02-02 15:21:00,71.5,61.2,30.15,SE,124,6.9,6.9,70,0.00,CLR,,0.00,WeatherDisplay:10.37,2013-02-02 21:21:00,
2013-02-02 15:26:00,71.4,61.5,30.16,SE,128,6.9,6.9,71,0.00,CLR,,0.00,WeatherDisplay:10.37,2013-02-02 21:26:00,
2013-02-02 15:31:00,71.5,60.4,30.16,East,94,13.8,13.8,68,0.00,CLR,,0.00,WeatherDisplay:10.37,2013-02-02 21:31:00,
2013-02-02 15:36:00,71.2,60.1,30.14,SE,124,9.2,9.2,68,0.00,CLR,,0.00,WeatherDisplay:10.37,2013-02-02 21:36:00,
2013-02-02 15:41:00,71.0,60.3,30.14,ESE,104,10.4,10.4,69,0.00,CLR,,0.00,WeatherDisplay:10.37,2013-02-02 21:41:00,
2013-02-02 15:46:00,71.0,59.9,30.14,SE,139,10.4,10.4,68,0.00,CLR,,0.00,WeatherDisplay:10.37,2013-02-02 21:46:00,
2013-02-02 15:51:00,70.9,61.0,30.14,ESE,123,10.4,10.4,71,0.00,CLR,,0.00,WeatherDisplay:10.37,2013-02-02 21:51:00,
2013-02-02 15:56:00,70.6,61.1,30.14,ESE,110,11.5,11.5,72,0.00,CLR,,0.00,WeatherDisplay:10.37,2013-02-02 21:56:00,
2013-02-02 16:01:00,70.5,61.0,30.14,ESE,117,10.4,10.4,72,0.00,CLR,,0.00,WeatherDisplay:10.37,2013-02-02 22:01:00,
2013-02-02 16:06:00,70.4,60.5,30.14,SE,132,10.4,10.4,71,0.00,CLR,,0.00,WeatherDisplay:10.37,2013-02-02 22:06:00,
2013-02-02 16:11:00,70.5,61.0,30.14,ESE,119,11.5,11.5,72,0.00,CLR,,0.00,WeatherDisplay:10.37,2013-02-02 22:11:00,
2013-02-02 16:16:00,70.6,61.1,30.14,ESE,103,12.7,12.7,72,0.00,CLR,,0.00,WeatherDisplay:10.37,2013-02-02 22:16:00,
2013-02-02 16:21:00,70.4,60.1,30.14,East,99,10.4,10.4,70,0.00,CLR,,0.00,WeatherDisplay:10.37,2013-02-02 22:21:00,
2013-02-02 16:26:00,70.5,59.8,30.14,ESE,123,10.4,10.4,69,0.00,CLR,,0.00,WeatherDisplay:10.37,2013-02-02 22:26:00,
2013-02-02 16:31:00,70.4,60.1,30.14,ESE,123,10.4,10.4,70,0.00,CLR,,0.00,WeatherDisplay:10.37,2013-02-02 22:31:00,
2013-02-02 16:36:00,70.2,60.4,30.14,East,96,9.2,9.2,71,0.00,CLR,,0.00,WeatherDisplay:10.37,2013-02-02 22:36:00,
2013-02-02 16:41:00,70.1,59.5,30.14,East,96,10.4,10.4,69,0.00,CLR,,0.00,WeatherDisplay:10.37,2013-02-02 22:41:00,
2013-02-02 16:46:00,70.2,60.7,30.14,SE,138,10.4,10.4,72,0.00,CLR,,0.00,WeatherDisplay:10.37,2013-02-02 22:46:00,
2013-02-02 16:51:00,70.0,60.9,30.14,ESE,109,10.4,10.4,73,0.00,CLR,,0.00,WeatherDisplay:10.37,2013-02-02 22:51:00,
2013-02-02 16:56:00,69.7,61.0,30.14,ESE,105,10.4,10.4,74,0.00,CLR,,0.00,WeatherDisplay:10.37,2013-02-02 22:56:00,
2013-02-02 17:01:00,69.4,60.4,30.14,SE,132,6.9,6.9,73,0.00,CLR,,0.00,WeatherDisplay:10.37,2013-02-02 23:01:00,
2013-02-02 17:06:00,69.4,60.4,30.14,ESE,103,8.1,8.1,73,0.00,CLR,,0.00,WeatherDisplay:10.37,2013-02-02 23:06:00,
2013-02-02 17:11:00,69.3,60.3,30.14,ESE,120,6.9,6.9,73,0.00,CLR,,0.00,WeatherDisplay:10.37,2013-02-02 23:11:00,
2013-02-02 17:16:00,69.1,60.1,30.15,ESE,107,9.2,9.2,73,0.00,CLR,,0.00,WeatherDisplay:10.37,2013-02-02 23:16:00,
2013-02-02 17:21:00,69.0,60.4,30.15,East,91,5.8,5.8,74,0.00,CLR,,0.00,WeatherDisplay:10.37,2013-02-02 23:21:00,
2013-02-02 17:26:00,68.9,60.3,30.15,ESE,103,9.2,9.2,74,0.00,CLR,,0.00,WeatherDisplay:10.37,2013-02-02 23:26:00,
2013-02-02 17:31:00,68.5,60.6,30.15,East,98,6.9,6.9,76,0.00,CLR,,0.00,WeatherDisplay:10.37,2013-02-02 23:31:00,
2013-02-02 17:36:00,68.3,60.4,30.15,ESE,110,6.9,6.9,76,0.00,CLR,,0.00,WeatherDisplay:10.37,2013-02-02 23:36:00,
2013-02-02 17:41:00,68.1,60.6,30.15,ESE,113,6.9,6.9,77,0.00,CLR,,0.00,WeatherDisplay:10.37,2013-02-02 23:41:00,
2013-02-02 17:46:00,67.8,60.7,30.15,ESE,105,5.8,5.8,78,0.00,CLR,,0.00,WeatherDisplay:10.37,2013-02-02 23:46:00,
2013-02-02 17:51:00,67.5,61.1,30.15,East,99,6.9,6.9,80,0.00,CLR,,0.00,WeatherDisplay:10.37,2013-02-02 23:51:00,
2013-02-02 17:56:00,67.1,60.7,30.16,East,85,5.8,5.8,80,0.00,CLR,,0.00,WeatherDisplay:10.37,2013-02-02 23:56:00,
2013-02-02 18:01:00,66.7,60.7,30.16,East,95,6.9,6.9,81,0.00,CLR,,0.00,WeatherDisplay:10.37,2013-02-03 00:01:00,
2013-02-02 18:06:00,66.3,60.6,30.16,ESE,103,5.8,5.8,82,0.00,CLR,,0.00,WeatherDisplay:10.37,2013-02-03 00:06:00,
2013-02-02 18:11:00,65.9,60.6,30.16,ESE,103,4.6,4.6,83,0.00,CLR,,0.00,WeatherDisplay:10.37,2013-02-03 00:11:00,
2013-02-02 18:16:00,65.6,60.6,30.16,ESE,122,6.9,6.9,84,0.00,CLR,,0.00,WeatherDisplay:10.37,2013-02-03 00:16:00,
2013-02-02 18:21:00,65.3,60.7,30.16,ESE,104,4.6,4.6,85,0.00,CLR,,0.00,WeatherDisplay:10.37,2013-02-03 00:21:00,
2013-02-02 18:26:00,65.0,60.7,30.16,ESE,113,5.8,5.8,86,0.00,CLR,,0.00,WeatherDisplay:10.37,2013-02-03 00:26:00,
2013-02-02 18:31:00,64.7,60.7,30.16,ESE,103,4.6,4.6,87,0.00,CLR,,0.00,WeatherDisplay:10.37,2013-02-03 00:31:00,
2013-02-02 18:36:00,64.4,60.4,30.16,ESE,103,3.2,3.2,87,0.00,CLR,,0.00,WeatherDisplay:10.37,2013-02-03 00:36:00,
2013-02-02 18:41:00,64.1,60.5,30.16,ESE,103,2.3,2.3,88,0.00,CLR,,0.00,WeatherDisplay:10.37,2013-02-03 00:41:00,
2013-02-02 18:46:00,63.9,60.6,30.16,ESE,103,2.3,2.3,89,0.00,CLR,,0.00,WeatherDisplay:10.37,2013-02-03 00:46:00,
2013-02-02 18:51:00,63.8,60.8,30.17,ESE,103,3.5,3.5,90,0.00,CLR,,0.00,WeatherDisplay:10.37,2013-02-03 00:51:00,
2013-02-02 18:56:00,63.6,60.6,30.17,ESE,103,3.5,3.5,90,0.00,CLR,,0.00,WeatherDisplay:10.37,2013-02-03 00:56:00,
2013-02-02 19:01:00,63.5,60.8,30.17,ESE,103,4.6,4.6,91,0.00,CLR,,0.00,WeatherDisplay:10.37,2013-02-03 01:01:00,
2013-02-02 19:06:00,63.3,60.6,30.17,ESE,103,2.3,2.3,91,0.00,CLR,,0.00,WeatherDisplay:10.37,2013-02-03 01:06:00,
2013-02-02 19:11:00,63.0,60.3,30.17,ESE,103,3.5,3.5,91,0.00,CLR,,0.00,WeatherDisplay:10.37,2013-02-03 01:11:00,
2013-02-02 19:16:00,62.8,60.4,30.17,ESE,103,2.3,2.3,92,0.00,CLR,,0.00,WeatherDisplay:10.37,2013-02-03 01:16:00,
2013-02-02 19:21:00,62.6,60.2,30.18,ESE,103,2.3,2.3,92,0.00,CLR,,0.00,WeatherDisplay:10.37,2013-02-03 01:21:00,
2013-02-02 19:26:00,62.5,60.1,30.18,ESE,103,1.1,1.1,92,0.00,CLR,,0.00,WeatherDisplay:10.37,2013-02-03 01:26:00,
2013-02-02 19:31:00,62.4,60.3,30.18,ESE,103,2.3,2.3,93,0.00,CLR,,0.00,WeatherDisplay:10.37,2013-02-03 01:31:00,
2013-02-02 19:36:00,62.3,60.2,30.18,ESE,103,3.5,3.5,93,0.00,CLR,,0.00,WeatherDisplay:10.37,2013-02-03 01:36:00,
2013-02-02 19:41:00,62.2,60.2,30.19,ESE,103,1.1,1.1,93,0.00,CLR,,0.00,WeatherDisplay:10.37,2013-02-03 01:41:00,
2013-02-02 19:46:00,62.0,60.0,30.19,ESE,103,1.1,1.1,93,0.00,CLR,,0.00,WeatherDisplay:10.37,2013-02-03 01:46:00,
2013-02-02 19:51:00,61.8,59.8,30.19,ESE,103,1.1,1.1,93,0.00,CLR,,0.00,WeatherDisplay:10.37,2013-02-03 01:51:00,
2013-02-02 19:56:00,61.7,60.0,30.19,ESE,103,3.5,3.5,94,0.00,CLR,,0.00,WeatherDisplay:10.37,2013-02-03 01:56:00,
2013-02-02 20:01:00,61.7,60.3,30.19,ESE,103,2.3,2.3,95,0.00,CLR,,0.00,WeatherDisplay:10.37,2013-02-03 02:01:00,
2013-02-02 20:06:00,61.5,60.1,30.19,ESE,103,2.3,2.3,95,0.00,CLR,,0.00,WeatherDisplay:10.37,2013-02-03 02:06:00,
2013-02-02 20:11:00,61.5,60.1,30.20,ESE,103,1.1,1.1,95,0.00,CLR,,0.00,WeatherDisplay:10.37,2013-02-03 02:11:00,
2013-02-02 20:16:00,61.3,59.9,30.20,ESE,103,0.0,0.0,95,0.00,CLR,,0.00,WeatherDisplay:10.37,2013-02-03 02:16:00,
2013-02-02 20:21:00,61.1,59.7,30.20,ESE,103,0.0,0.0,95,0.00,CLR,,0.00,WeatherDisplay:10.37,2013-02-03 02:21:00,
2013-02-02 20:26:00,60.9,59.8,30.20,ESE,103,0.0,0.0,96,0.00,CLR,,0.00,WeatherDisplay:10.37,2013-02-03 02:26:00,
2013-02-02 20:31:00,60.7,59.6,30.20,ESE,103,0.0,0.0,96,0.00,CLR,,0.00,WeatherDisplay:10.37,2013-02-03 02:31:00,
2013-02-02 20:36:00,60.5,59.4,30.21,ESE,103,0.0,0.0,96,0.00,CLR,,0.00,WeatherDisplay:10.37,2013-02-03 02:36:00,
2013-02-02 20:41:00,60.5,59.6,30.21,ESE,103,0.0,0.0,97,0.00,CLR,,0.00,WeatherDisplay:10.37,2013-02-03 02:41:00,
2013-02-02 20:46:00,60.5,59.6,30.21,ESE,103,0.0,0.0,97,0.00,CLR,,0.00,WeatherDisplay:10.37,2013-02-03 02:46:00,
2013-02-02 20:51:00,60.6,59.7,30.21,ESE,103,0.0,0.0,97,0.00,CLR,,0.00,WeatherDisplay:10.37,2013-02-03 02:51:00,
2013-02-02 20:56:00,60.5,59.6,30.21,ESE,103,0.0,0.0,97,0.00,CLR,,0.00,WeatherDisplay:10.37,2013-02-03 02:56:00,
2013-02-02 21:01:00,60.5,59.6,30.21,ESE,103,0.0,0.0,97,0.00,CLR,,0.00,WeatherDisplay:10.37,2013-02-03 03:01:00,
2013-02-02 21:06:00,60.5,59.6,30.22,ESE,103,0.0,0.0,97,0.00,CLR,,0.00,WeatherDisplay:10.37,2013-02-03 03:06:00,
2013-02-02 21:11:00,60.3,59.4,30.22,ESE,103,1.1,1.1,97,0.00,CLR,,0.00,WeatherDisplay:10.37,2013-02-03 03:11:00,
2013-02-02 21:16:00,60.2,59.3,30.22,ESE,103,0.0,0.0,97,0.00,CLR,,0.00,WeatherDisplay:10.37,2013-02-03 03:16:00,
2013-02-02 21:21:00,60.1,59.5,30.22,ESE,103,0.0,0.0,98,0.00,CLR,,0.00,WeatherDisplay:10.37,2013-02-03 03:21:00,
2013-02-02 21:26:00,60.1,59.5,30.21,ESE,103,0.0,0.0,98,0.00,CLR,,0.00,WeatherDisplay:10.37,2013-02-03 03:26:00,
2013-02-02 21:31:00,60.1,59.5,30.22,ESE,103,0.0,0.0,98,0.00,CLR,,0.00,WeatherDisplay:10.37,2013-02-03 03:31:00,
2013-02-02 21:36:00,59.9,59.3,30.22,ESE,103,0.0,0.0,98,0.00,CLR,,0.00,WeatherDisplay:10.37,2013-02-03 03:36:00,
2013-02-02 21:41:00,59.8,59.2,30.22,ESE,103,1.1,0.0,98,0.00,CLR,,0.00,WeatherDisplay:10.37,2013-02-03 03:41:00,
2013-02-02 21:46:00,59.6,59.0,30.22,ESE,103,0.0,0.0,98,0.00,CLR,,0.00,WeatherDisplay:10.37,2013-02-03 03:46:00,
2013-02-02 21:51:00,59.4,58.8,30.22,ESE,103,0.0,0.0,98,0.00,CLR,,0.00,WeatherDisplay:10.37,2013-02-03 03:51:00,
2013-02-02 21:56:00,59.3,58.7,30.21,ESE,103,1.1,0.0,98,0.00,CLR,,0.00,WeatherDisplay:10.37,2013-02-03 03:56:00,
2013-02-02 22:01:00,59.2,58.9,30.21,ESE,103,0.0,0.0,99,0.00,CLR,,0.00,WeatherDisplay:10.37,2013-02-03 04:01:00,
2013-02-02 22:06:00,59.1,58.8,30.22,ESE,103,0.0,0.0,99,0.00,CLR,,0.00,WeatherDisplay:10.37,2013-02-03 04:06:00,
2013-02-02 22:11:00,59.0,58.4,30.22,ESE,103,0.0,0.0,98,0.00,CLR,,0.00,WeatherDisplay:10.37,2013-02-03 04:11:00,
2013-02-02 22:16:00,58.7,58.1,30.22,ESE,103,0.0,0.0,98,0.00,CLR,,0.00,WeatherDisplay:10.37,2013-02-03 04:16:00,
2013-02-02 22:21:00,58.6,58.3,30.22,ESE,103,0.0,0.0,99,0.00,CLR,,0.00,WeatherDisplay:10.37,2013-02-03 04:21:00,
2013-02-02 22:26:00,58.4,57.8,30.22,ESE,103,0.0,0.0,98,0.00,CLR,,0.00,WeatherDisplay:10.37,2013-02-03 04:26:00,
2013-02-02 22:31:00,58.1,57.5,30.22,ESE,103,0.0,0.0,98,0.00,CLR,,0.00,WeatherDisplay:10.37,2013-02-03 04:31:00,
2013-02-02 22:36:00,57.8,57.2,30.22,ESE,103,0.0,0.0,98,0.00,CLR,,0.00,WeatherDisplay:10.37,2013-02-03 04:36:00,
2013-02-02 22:41:00,57.6,57.0,30.22,ESE,103,0.0,0.0,98,0.00,CLR,,0.00,WeatherDisplay:10.37,2013-02-03 04:41:00,
2013-02-02 22:46:00,57.6,57.3,30.22,ESE,103,0.0,0.0,99,0.00,CLR,,0.00,WeatherDisplay:10.37,2013-02-03 04:46:00,
2013-02-02 22:51:00,57.6,57.3,30.22,ESE,103,0.0,0.0,99,0.00,CLR,,0.00,WeatherDisplay:10.37,2013-02-03 04:51:00,
2013-02-02 22:56:00,57.6,57.3,30.22,ESE,103,0.0,0.0,99,0.00,CLR,,0.00,WeatherDisplay:10.37,2013-02-03 04:56:00,
2013-02-02 23:01:00,57.6,57.3,30.22,ESE,103,0.0,0.0,99,0.00,CLR,,0.00,WeatherDisplay:10.37,2013-02-03 05:01:00,
2013-02-02 23:02:00,57.6,57.3,30.22,ESE,103,0.0,0.0,99,0.00,CLR,,0.00,WeatherDisplay:10.37,2013-02-03 05:02:00,
2013-02-02 23:03:00,57.6,57.3,30.22,ESE,103,0.0,0.0,99,0.00,CLR,,0.00,WeatherDisplay:10.37,2013-02-03 05:03:00,
2013-02-02 23:08:00,57.5,57.2,30.22,ESE,103,0.0,0.0,99,0.00,CLR,,0.00,WeatherDisplay:10.37,2013-02-03 05:08:00,
2013-02-02 23:13:00,57.5,57.5,30.22,ESE,103,0.0,0.0,100,0.00,CLR,,0.00,WeatherDisplay:10.37,2013-02-03 05:13:00,
2013-02-02 23:18:00,57.5,57.5,30.22,ESE,103,0.0,0.0,100,0.00,CLR,,0.00,WeatherDisplay:10.37,2013-02-03 05:18:00,
2013-02-02 23:23:00,57.6,57.6,30.22,ESE,103,0.0,0.0,100,0.00,CLR,,0.00,WeatherDisplay:10.37,2013-02-03 05:23:00,
2013-02-02 23:28:00,57.5,57.5,30.22,ESE,103,0.0,0.0,100,0.00,CLR,,0.00,WeatherDisplay:10.37,2013-02-03 05:28:00,
2013-02-02 23:33:00,57.4,57.4,30.22,ESE,103,0.0,0.0,100,0.00,CLR,,0.00,WeatherDisplay:10.37,2013-02-03 05:33:00,
2013-02-02 23:38:00,57.6,57.6,30.22,ESE,103,0.0,0.0,100,0.00,CLR,,0.00,WeatherDisplay:10.37,2013-02-03 05:38:00,
2013-02-02 23:43:00,57.6,57.6,30.22,ESE,103,0.0,0.0,100,0.00,CLR,,0.00,WeatherDisplay:10.37,2013-02-03 05:43:00,
2013-02-02 23:48:00,57.2,56.9,30.22,ESE,103,0.0,0.0,99,0.00,CLR,,0.00,WeatherDisplay:10.37,2013-02-03 05:48:00,
2013-02-02 23:53:00,57.0,57.0,30.22,ESE,103,0.0,0.0,100,0.00,CLR,,0.00,WeatherDisplay:10.37,2013-02-03 05:53:00,
2013-02-02 23:58:00,56.9,56.9,30.22,ESE,103,0.0,0.0,100,0.00,CLR,,0.00,WeatherDisplay:10.37,2013-02-03 05:58:00,